Snowfall_Accumulation
0.2 0.1 0.0 0.0 0.0 0.0 0.0 0.0 0.0 0.0 0.0 0.0 0.0 0.0 0.0 0.0 0.0 0.0 0.0 0.0 0.0 0.0 0.0 0.0 0.0 0.0 0.0 0.1 0.1 0.1 0.1 0.4 3.7 0.0 0.0 0.0 0.0 0.0 0.0 0.0 0.0 0.0 0.0
0.5 0.1 0.0 0.0 0.0 0.0 0.0 0.0 0.0 0.0 0.0 0.0 0.0 0.0 0.0 0.0 0.0 0.0 0.0 0.0 0.0 0.0 0.0 0.0 0.0 0.0 0.0 0.1 0.1 0.1 0.1 0.1 1.7 1.8 0.4 0.5 0.3 0.0 0.0 0.0 0.0 0.0 0.0
0.7 0.3 0.0 0.0 0.0 0.0 0.0 0.0 0.0 0.0 0.0 0.0 0.0 0.0 0.0 0.0 0.0 0.0 0.0 0.0 0.0 0.0 0.0 0.0 0.0 0.0 0.1 0.1 0.1 0.4 0.3 0.2 1.1 2.0 1.0 0.1 0.3 0.0 1.3 0.1 0.0 0.0 0.0
3.9 0.6 0.1 0.0 0.0 0.0 0.0 0.0 0.0 0.0 0.0 0.0 0.0 0.0 0.0 0.0 0.0 0.0 0.0 0.0 0.0 0.0 0.0 0.0 0.0 0.1 0.1 0.6 1.1 2.4 1.9 1.8 1.2 1.0 0.7 0.5 0.9 0.6 0.4 0.7 0.4 0.2 0.5
3.9 4.8 0.3 0.1 0.0 0.0 0.0 0.0 0.0 0.0 0.0 0.0 0.0 0.0 0.0 0.0 0.0 0.0 0.2 0.4 0.4 0.4 0.2 0.3 0.1 0.7 0.5 0.7 1.5 1.6 1.7 1.7 2.0 3.8 2.5 1.3 0.5 0.3 0.3 0.2 0.9 0.6 1.4
6.0 5.2 0.3 0.2 1.2 0.0 0.0 0.0 0.0 0.0 0.0 0.0 0.0 0.0 0.0 0.0 0.0 0.1 0.4 1.1 0.7 0.5 0.5 0.5 1.2 1.7 1.2 0.6 0.2 0.2 0.4 2.8 4.5 3.8 3.3 1.3 0.2 0.1 0.2 0.4 2.3 4.9 8.1
6.2 4.9 4.9 1.5 1.5 0.0 0.0 0.0 0.0 0.0 0.0 0.0 0.0 0.0 0.0 0.0 0.0 0.2 0.6 1.5 1.2 2.9 3.4 3.7 2.3 1.5 2.0 1.3 0.5 0.2 0.6 0.1 0.1 1.1 1.4 0.3 0.3 0.2 1.5 2.5 2.7 5.1 6.8
6.4 6.9 5.2 4.7 4.7 0.0 0.0 0.0 0.0 0.0 0.0 0.0 0.0 0.2 0.0 0.0 0.1 0.5 2.1 4.7 4.1 4.1 3.5 2.7 2.0 1.7 0.9 0.5 0.7 0.7 0.3 0.0 0.0 0.1 0.1 0.3 0.7 0.3 1.1 2.0 2.1 2.5 1.3
7.4 7.2 7.9 6.0 5.6 4.0 0.0 0.0 0.0 0.0 1.1 3.5 2.7 3.6 4.2 4.1 0.7 0.9 3.0 4.6 3.0 1.8 0.5 0.0 0.0 0.1 0.0 0.1 0.8 0.9 0.3 0.1 0.0 0.0 0.1 0.0 0.0 0.0 0.0 0.9 4.0 6.8 6.7
9.1 9.1 8.6 8.9 9.1 9.1 2.4 5.2 3.3 1.7 4.9 3.8 4.7 4.2 1.9 2.4 0.6 0.9 1.3 2.3 2.6 2.2 0.9 0.0 0.0 0.1 0.1 0.2 0.7 0.7 0.9 0.0 0.6 0.2 0.0 0.0 0.0 0.0 0.0 0.0 2.0 12.9 11.9
6.8 7.8 8.4 8.5 9.9 9.6 10.5 6.2 2.7 2.6 3.4 3.6 3.7 2.5 1.5 0.4 0.2 0.1 0.3 1.8 1.8 1.5 1.0 0.6 0.0 0.1 0.1 0.1 0.0 0.8 0.7 0.2 0.2 0.2 0.3 0.1 0.0 0.0 0.7 0.5 0.2 4.8 15.1
5.2 5.5 6.8 8.7 9.5 8.8 8.3 7.8 5.0 1.4 3.0 2.7 2.4 2.4 1.2 0.0 0.0 0.0 0.1 0.4 0.7 2.7 1.1 0.2 0.1 0.2 0.0 0.0 0.1 0.1 0.3 0.2 0.7 1.0 1.3 1.0 0.8 0.3 0.1 0.4 0.4 0.2 0.6
3.2 5.2 5.8 7.0 7.7 8.5 7.4 7.3 8.6 5.3 4.6 3.2 2.3 2.1 2.2 0.6 0.5 0.1 0.1 0.2 0.5 1.3 0.2 0.2 0.2 0.1 0.1 0.1 0.0 0.1 0.0 0.5 2.4 2.0 1.3 0.7 0.3 0.6 0.9 1.4 1.1 1.3 1.2
5.1 5.6 5.6 6.7 8.1 8.5 8.2 9.0 10.2 11.1 9.3 3.1 2.4 3.5 2.7 2.5 1.4 0.8 0.8 0.9 0.1 0.2 0.2 0.6 0.3 0.7 0.2 0.1 0.2 0.1 0.0 0.2 1.9 2.8 2.2 1.6 1.7 1.1 1.5 1.0 2.5 2.8 6.3
4.8 6.4 7.5 7.5 10.1 11.0 11.8 14.5 15.1 9.1 12.3 17.0 9.7 7.0 7.5 7.1 3.4 2.8 4.8 4.0 2.9 2.4 3.3 5.7 4.2 3.9 3.2 2.9 2.4 2.1 1.9 1.3 2.0 1.4 2.9 3.9 3.1 3.0 2.4 2.0 3.1 4.5 9.8
10.4 9.8 10.9 12.3 11.6 12.1 13.2 17.8 8.6 8.7 5.8 5.5 5.9 7.2 6.8 3.7 2.5 2.4 2.3 2.1 1.5 3.0 9.9 12.1 10.9 8.6 7.1 7.0 4.6 4.2 4.0 3.1 2.9 3.7 4.5 4.5 7.5 6.0 5.7 6.3 5.4 7.4 11.9
14.0 14.0 14.5 13.2 13.5 13.5 15.4 14.9 18.7 12.8 6.6 6.2 5.3 3.5 3.6 3.9 2.9 2.5 2.4 3.0 3.4 5.4 12.1 11.5 12.3 11.1 11.1 10.3 8.6 6.9 6.7 3.8 4.1 6.8 9.7 9.6 10.9 10.7 9.5 8.3 8.0 9.4 12.2
11.5 10.2 13.6 13.6 14.2 14.2 14.9 14.5 13.7 16.0 19.2 16.7 6.5 5.2 3.5 2.8 2.9 3.2 3.6 3.9 8.9 8.8 9.1 10.4 11.5 11.8 11.6 11.7 11.6 10.3 8.7 8.0 9.1 10.0 11.9 12.7 13.5 16.4 13.5 12.1 9.8 14.1 15.6
9.5 11.1 12.8 13.3 12.7 13.9 14.9 14.3 14.7 15.3 15.8 16.7 16.1 9.9 6.1 3.7 2.7 3.7 4.3 7.8 9.0 8.9 10.1 10.8 10.5 11.4 11.9 10.2 9.6 11.5 11.3 11.0 11.4 12.9 10.0 12.1 12.1 18.1 14.7 10.3 11.4 8.8 12.9
8.1 8.0 10.2 11.9 12.3 13.2 13.2 14.6 15.5 15.5 16.1 16.0 16.7 18.0 17.3 15.0 16.0 12.0 10.1 9.0 10.2 10.7 11.1 10.5 8.7 8.7 9.4 9.2 9.6 9.5 11.5 11.0 10.9 9.1 9.2 10.5 11.3 14.5 16.4 13.4 11.4 15.9 13.1
7.9 8.6 7.8 10.0 11.3 12.5 13.9 15.3 14.5 15.8 16.5 17.5 18.7 16.1 12.8 21.5 22.2 12.7 11.0 11.7 12.1 11.9 12.6 11.4 8.7 8.3 8.3 9.5 10.5 10.2 9.0 8.3 8.4 10.3 10.3 9.9 12.1 15.7 9.5 11.3 13.3 12.9 13.3
7.1 8.5 9.3 10.6 10.5 11.3 13.8 13.3 13.7 15.5 16.5 18.0 18.9 16.6 10.9 18.4 19.8 20.4 16.8 14.4 14.1 12.2 12.1 13.1 10.4 9.6 11.2 14.0 14.1 12.4 9.3 7.5 7.9 11.0 11.2 10.4 11.8 11.6 11.2 12.4 12.9 13.9 13.0
9.2 10.3 11.3 13.1 11.8 11.3 12.0 12.0 13.4 14.8 16.1 15.4 15.1 17.1 19.8 19.3 18.5 19.7 19.9 20.0 18.2 15.5 13.7 13.0 13.8 10.9 8.5 11.2 14.0 17.2 17.7 10.6 10.3 14.8 19.1 14.1 12.2 12.0 13.0 15.9 12.2 14.3 11.7
10.5 11.9 12.9 12.3 11.0 12.5 12.2 14.4 14.3 14.9 16.1 17.1 16.4 18.1 18.5 18.1 19.6 20.1 21.0 21.6 20.7 19.2 16.7 16.3 15.1 12.8 11.3 10.7 10.7 11.9 14.6 14.0 17.0 19.0 21.2 24.8 17.6 11.4 12.7 13.3 11.0 11.4 12.4
10.8 14.1 15.3 15.5 15.2 14.5 14.1 12.3 12.7 14.0 15.9 15.9 17.2 17.8 17.8 18.5 19.7 19.0 20.6 21.9 21.4 19.5 17.3 15.7 14.2 14.3 12.0 11.8 11.1 11.5 11.8 11.0 14.3 16.5 18.2 17.6 15.5 11.1 11.8 11.6 10.8 11.5 11.8
14.1 14.3 17.4 17.6 16.1 13.9 13.6 13.9 13.8 14.7 17.3 18.4 18.5 17.9 18.0 18.9 18.6 18.7 19.3 20.0 19.7 18.9 18.0 17.2 14.2 13.0 12.2 10.3 9.2 9.0 7.8 6.9 9.0 7.9 14.0 18.0 16.9 13.0 11.8 12.4 11.1 13.6 12.3